Time,TemperatureF,DewpointF,PressureIn,WindDirection,WindDirectionDegrees,WindSpeedMPH,WindSpeedGustMPH,Humidity,HourlyPrecipIn,Conditions,Clouds,dailyrainin,SoftwareType,DateUTC
2013-02-02 00:06:00,44.8,6.2,28.50,ESE,111,5.4,8.1,20,0.00,,---,0.00,VWS V14.01,2013-02-02 08:06:00,
2013-02-02 00:11:00,44.8,6.2,28.50,SE,126,5.4,5.4,20,0.00,,---,0.00,VWS V14.01,2013-02-02 08:11:00,
2013-02-02 00:16:00,45.3,3.1,28.53,SSE,152,9.6,9.6,17,0.00,,---,0.00,VWS V14.01,2013-02-02 08:16:00,
2013-02-02 00:22:00,45.1,2.9,28.53,East,92,3.6,6.3,17,0.00,,---,0.00,VWS V14.01,2013-02-02 08:22:00,
2013-02-02 00:27:00,44.8,6.2,28.53,ESE,119,7.2,7.2,20,0.00,,---,0.00,VWS V14.01,2013-02-02 08:27:00,
2013-02-02 00:32:00,44.6,6.0,28.53,SE,127,5.4,10.1,20,0.00,,---,0.00,VWS V14.01,2013-02-02 08:32:00,
2013-02-02 00:37:00,44.6,6.0,28.53,SSE,150,7.6,7.6,20,0.00,,---,0.00,VWS V14.01,2013-02-02 08:37:00,
2013-02-02 00:43:00,44.1,5.6,28.50,ESE,122,5.4,7.6,20,0.00,,---,0.00,VWS V14.01,2013-02-02 08:43:00,
2013-02-02 00:48:00,44.1,3.3,28.50,ENE,76,6.3,6.3,18,0.00,,---,0.00,VWS V14.01,2013-02-02 08:48:00,
2013-02-02 00:53:00,45.0,2.8,28.50,SE,141,5.4,10.1,17,0.00,,---,0.00,VWS V14.01,2013-02-02 08:53:00,
2013-02-02 00:59:00,44.8,2.6,28.53,ENE,77,4.5,5.4,17,0.00,,---,0.00,VWS V14.01,2013-02-02 08:59:00,
2013-02-02 01:04:00,44.8,2.6,28.53,SE,134,4.5,8.1,17,0.00,,---,0.00,VWS V14.01,2013-02-02 09:04:00,
2013-02-02 01:09:00,44.6,2.5,28.53,ESE,109,8.3,8.3,17,0.00,,---,0.00,VWS V14.01,2013-02-02 09:09:00,
2013-02-02 01:14:00,44.6,2.5,28.53,SE,125,3.1,8.3,17,0.00,,---,0.00,VWS V14.01,2013-02-02 09:14:00,
2013-02-02 01:20:00,44.4,3.6,28.50,SSE,155,8.1,11.0,18,0.00,,---,0.00,VWS V14.01,2013-02-02 09:20:00,
2013-02-02 01:25:00,44.6,2.5,28.53,ESE,111,4.0,4.0,17,0.00,,---,0.00,VWS V14.01,2013-02-02 09:25:00,
2013-02-02 01:30:00,44.2,3.4,28.53,East,99,2.7,2.7,18,0.00,,---,0.00,VWS V14.01,2013-02-02 09:30:00,
2013-02-02 01:36:00,43.7,3.0,28.53,ESE,102,3.6,3.6,18,0.00,,---,0.00,VWS V14.01,2013-02-02 09:36:00,
2013-02-02 01:41:00,43.7,3.0,28.53,ESE,102,3.6,3.6,18,0.00,,---,0.00,VWS V14.01,2013-02-02 09:41:00,
2013-02-02 01:46:00,43.3,2.7,28.53,East,100,5.4,5.4,18,0.00,,---,0.00,VWS V14.01,2013-02-02 09:46:00,
2013-02-02 01:51:00,43.3,2.7,28.53,East,99,6.3,6.3,18,0.00,,---,0.00,VWS V14.01,2013-02-02 09:51:00,
2013-02-02 01:57:00,43.3,2.7,28.53,SSE,167,6.3,6.3,18,0.00,,---,0.00,VWS V14.01,2013-02-02 09:57:00,
2013-02-02 02:02:00,43.7,3.0,28.53,ESE,114,6.3,6.3,18,0.00,,---,0.00,VWS V14.01,2013-02-02 10:02:00,
2013-02-02 02:07:00,43.7,3.0,28.53,SE,135,4.9,4.9,18,0.00,,---,0.00,VWS V14.01,2013-02-02 10:07:00,
2013-02-02 02:12:00,43.7,3.0,28.53,SE,140,5.8,5.8,18,0.00,,---,0.00,VWS V14.01,2013-02-02 10:12:00,
2013-02-02 02:18:00,43.7,3.0,28.53,SSE,156,8.7,8.7,18,0.00,,---,0.00,VWS V14.01,2013-02-02 10:18:00,
2013-02-02 02:23:00,43.7,3.0,28.53,ESE,118,3.6,8.7,18,0.00,,---,0.00,VWS V14.01,2013-02-02 10:23:00,
2013-02-02 02:28:00,43.7,3.0,28.53,ESE,114,9.2,9.2,18,0.00,,---,0.00,VWS V14.01,2013-02-02 10:28:00,
2013-02-02 02:33:00,43.7,3.0,28.53,South,180,4.9,9.2,18,0.00,,---,0.00,VWS V14.01,2013-02-02 10:33:00,
2013-02-02 02:39:00,43.2,2.5,28.53,ESE,119,4.0,6.3,18,0.00,,---,0.00,VWS V14.01,2013-02-02 10:39:00,
2013-02-02 02:44:00,43.2,2.5,28.53,SSE,166,3.6,8.3,18,0.00,,---,0.00,VWS V14.01,2013-02-02 10:44:00,
2013-02-02 02:49:00,43.5,2.8,28.53,East,97,7.6,7.6,18,0.00,,---,0.00,VWS V14.01,2013-02-02 10:49:00,
2013-02-02 02:55:00,43.9,3.1,28.53,SSW,206,5.8,5.8,18,0.00,,---,0.00,VWS V14.01,2013-02-02 10:55:00,
2013-02-02 03:00:00,44.1,3.3,28.53,SSE,163,3.1,3.1,18,0.00,,---,0.00,VWS V14.01,2013-02-02 11:00:00,
2013-02-02 03:05:00,43.9,3.1,28.53,SE,132,3.1,3.6,18,0.00,,---,0.00,VWS V14.01,2013-02-02 11:05:00,
2013-02-02 03:10:00,43.9,3.1,28.53,SE,132,2.7,2.7,18,0.00,,---,0.00,VWS V14.01,2013-02-02 11:10:00,
2013-02-02 03:16:00,43.9,3.1,28.53,ESE,110,5.4,5.4,18,0.00,,---,0.00,VWS V14.01,2013-02-02 11:16:00,
2013-02-02 03:21:00,43.9,3.1,28.53,East,87,4.0,4.9,18,0.00,,---,0.00,VWS V14.01,2013-02-02 11:21:00,
2013-02-02 03:26:00,43.7,3.0,28.53,East,87,4.0,4.0,18,0.00,,---,0.00,VWS V14.01,2013-02-02 11:26:00,
2013-02-02 03:31:00,44.1,3.3,28.53,ESE,105,3.1,4.0,18,0.00,,---,0.00,VWS V14.01,2013-02-02 11:31:00,
2013-02-02 03:37:00,43.9,3.1,28.53,ESE,103,5.4,5.4,18,0.00,,---,0.00,VWS V14.01,2013-02-02 11:37:00,
2013-02-02 03:42:00,43.9,3.1,28.53,ESE,115,4.0,5.4,18,0.00,,---,0.00,VWS V14.01,2013-02-02 11:42:00,
2013-02-02 03:47:00,44.1,3.3,28.53,East,94,4.0,4.0,18,0.00,,---,0.00,VWS V14.01,2013-02-02 11:47:00,
2013-02-02 03:52:00,44.1,3.3,28.53,East,94,4.0,4.0,18,0.00,,---,0.00,VWS V14.01,2013-02-02 11:52:00,
2013-02-02 03:58:00,44.8,2.6,28.53,SSE,161,4.0,5.8,17,0.00,,---,0.00,VWS V14.01,2013-02-02 11:58:00,
2013-02-02 04:03:00,44.8,2.6,28.53,South,185,6.3,6.3,17,0.00,,---,0.00,VWS V14.01,2013-02-02 12:03:00,
2013-02-02 04:08:00,44.8,2.6,28.53,South,171,5.8,8.3,17,0.00,,---,0.00,VWS V14.01,2013-02-02 12:08:00,
2013-02-02 04:14:00,44.4,3.6,28.53,ESE,104,4.9,5.8,18,0.00,,---,0.00,VWS V14.01,2013-02-02 12:14:00,
2013-02-02 04:19:00,44.4,3.6,28.53,SSE,147,3.6,4.9,18,0.00,,---,0.00,VWS V14.01,2013-02-02 12:19:00,
2013-02-02 04:24:00,44.2,3.4,28.53,SE,137,4.9,7.6,18,0.00,,---,0.00,VWS V14.01,2013-02-02 12:24:00,
2013-02-02 04:29:00,44.2,3.4,28.53,ESE,114,5.4,8.1,18,0.00,,---,0.00,VWS V14.01,2013-02-02 12:29:00,
2013-02-02 04:35:00,44.1,3.3,28.53,East,95,5.4,5.4,18,0.00,,---,0.00,VWS V14.01,2013-02-02 12:35:00,
2013-02-02 04:40:00,44.1,3.3,28.53,East,96,3.6,8.7,18,0.00,,---,0.00,VWS V14.01,2013-02-02 12:40:00,
2013-02-02 04:45:00,43.7,3.0,28.53,East,94,4.0,4.0,18,0.00,,---,0.00,VWS V14.01,2013-02-02 12:45:00,
2013-02-02 04:50:00,43.7,3.0,28.53,SSE,147,5.4,10.1,18,0.00,,---,0.00,VWS V14.01,2013-02-02 12:50:00,
2013-02-02 04:56:00,43.7,3.0,28.53,ESE,108,6.3,6.3,18,0.00,,---,0.00,VWS V14.01,2013-02-02 12:56:00,
2013-02-02 05:01:00,43.7,3.0,28.53,ESE,108,7.6,7.6,18,0.00,,---,0.00,VWS V14.01,2013-02-02 13:01:00,
2013-02-02 05:06:00,43.7,3.0,28.53,SE,136,6.3,6.3,18,0.00,,---,0.00,VWS V14.01,2013-02-02 13:06:00,
2013-02-02 05:11:00,44.2,3.4,28.53,East,99,2.7,5.4,18,0.00,,---,0.00,VWS V14.01,2013-02-02 13:11:00,
2013-02-02 05:17:00,44.2,3.4,28.53,ESE,106,2.7,2.7,18,0.00,,---,0.00,VWS V14.01,2013-02-02 13:17:00,
2013-02-02 05:22:00,44.6,2.5,28.53,ESE,104,4.9,5.8,17,0.00,,---,0.00,VWS V14.01,2013-02-02 13:22:00,
2013-02-02 05:27:00,44.4,3.6,28.53,SE,125,5.4,5.8,18,0.00,,---,0.00,VWS V14.01,2013-02-02 13:27:00,
2013-02-02 05:32:00,44.4,3.6,28.53,South,189,4.0,6.3,18,0.00,,---,0.00,VWS V14.01,2013-02-02 13:32:00,
2013-02-02 05:38:00,44.4,3.6,28.50,SE,130,7.6,7.6,18,0.00,,---,0.00,VWS V14.01,2013-02-02 13:38:00,
2013-02-02 05:43:00,44.1,3.3,28.50,SSE,167,8.3,8.3,18,0.00,,---,0.00,VWS V14.01,2013-02-02 13:43:00,
2013-02-02 05:48:00,44.2,3.4,28.50,ENE,60,8.3,8.3,18,0.00,,---,0.00,VWS V14.01,2013-02-02 13:48:00,
2013-02-02 05:53:00,44.2,3.4,28.50,SSE,162,2.2,7.6,18,0.00,,---,0.00,VWS V14.01,2013-02-02 13:53:00,
2013-02-02 05:59:00,43.9,3.1,28.50,SSE,148,3.6,4.9,18,0.00,,---,0.00,VWS V14.01,2013-02-02 13:59:00,
2013-02-02 06:04:00,43.7,3.0,28.50,SE,136,3.6,4.9,18,0.00,,---,0.00,VWS V14.01,2013-02-02 14:04:00,
2013-02-02 06:09:00,43.7,3.0,28.50,SE,128,3.6,5.4,18,0.00,,---,0.00,VWS V14.01,2013-02-02 14:09:00,
2013-02-02 06:14:00,43.5,2.8,28.50,SE,124,4.0,4.0,18,0.00,,---,0.00,VWS V14.01,2013-02-02 14:14:00,
2013-02-02 06:20:00,43.5,2.8,28.50,SE,130,5.4,8.7,18,0.00,,---,0.00,VWS V14.01,2013-02-02 14:20:00,
2013-02-02 06:25:00,43.5,2.8,28.50,SE,130,5.4,5.4,18,0.00,,---,0.00,VWS V14.01,2013-02-02 14:25:00,
2013-02-02 06:30:00,43.7,3.0,28.50,ESE,102,6.3,6.3,18,0.00,,---,0.00,VWS V14.01,2013-02-02 14:30:00,
2013-02-02 06:36:00,43.7,3.0,28.50,SE,136,2.2,2.2,18,0.00,,---,0.00,VWS V14.01,2013-02-02 14:36:00,
2013-02-02 06:41:00,43.5,2.8,28.50,SE,126,4.9,4.9,18,0.00,,---,0.00,VWS V14.01,2013-02-02 14:41:00,
2013-02-02 06:46:00,43.5,2.8,28.50,ESE,113,5.4,5.4,18,0.00,,---,0.00,VWS V14.01,2013-02-02 14:46:00,
2013-02-02 06:51:00,43.5,2.8,28.50,ESE,110,4.0,5.4,18,0.00,,---,0.00,VWS V14.01,2013-02-02 14:51:00,
2013-02-02 06:57:00,43.2,2.5,28.50,East,93,3.1,3.1,18,0.00,,---,0.00,VWS V14.01,2013-02-02 14:57:00,
2013-02-02 07:02:00,43.5,2.8,28.50,ESE,121,6.3,6.3,18,0.00,,---,0.00,VWS V14.01,2013-02-02 15:02:00,
2013-02-02 07:07:00,43.5,2.8,28.50,ENE,75,3.6,6.3,18,0.00,,---,0.00,VWS V14.01,2013-02-02 15:07:00,
2013-02-02 07:12:00,43.5,2.8,28.50,SE,125,5.4,8.1,18,0.00,,---,0.00,VWS V14.01,2013-02-02 15:12:00,
2013-02-02 07:19:00,43.3,2.7,28.50,ENE,64,5.8,5.8,18,0.00,,---,0.00,VWS V14.01,2013-02-02 15:19:00,
2013-02-02 07:24:00,43.3,2.7,28.50,SE,140,5.8,5.8,18,0.00,,---,0.00,VWS V14.01,2013-02-02 15:24:00,
2013-02-02 07:29:00,43.2,2.5,28.50,ENE,69,3.1,3.1,18,0.00,,---,0.00,VWS V14.01,2013-02-02 15:29:00,
2013-02-02 07:34:00,43.0,2.4,28.50,ESE,119,5.8,8.3,18,0.00,,---,0.00,VWS V14.01,2013-02-02 15:34:00,
2013-02-02 07:40:00,42.8,2.2,28.53,SE,131,5.8,5.8,18,0.00,,---,0.00,VWS V14.01,2013-02-02 15:40:00,
2013-02-02 07:45:00,42.6,2.1,28.53,ESE,119,5.8,5.8,18,0.00,,---,0.00,VWS V14.01,2013-02-02 15:45:00,
2013-02-02 07:50:00,42.4,1.9,28.53,ESE,111,4.0,4.0,18,0.00,,---,0.00,VWS V14.01,2013-02-02 15:50:00,
2013-02-02 07:56:00,42.4,1.9,28.53,ENE,57,3.6,3.6,18,0.00,,---,0.00,VWS V14.01,2013-02-02 15:56:00,
2013-02-02 08:01:00,42.6,2.1,28.53,South,181,5.4,5.4,18,0.00,,---,0.00,VWS V14.01,2013-02-02 16:01:00,
2013-02-02 08:06:00,42.4,5.3,28.53,ESE,116,6.3,6.3,21,0.00,,---,0.00,VWS V14.01,2013-02-02 16:06:00,
2013-02-02 08:11:00,42.4,5.3,28.53,SE,125,2.7,2.7,21,0.00,,---,0.00,VWS V14.01,2013-02-02 16:11:00,
2013-02-02 08:17:00,42.4,5.3,28.53,ESE,112,4.0,4.0,21,0.00,,---,0.00,VWS V14.01,2013-02-02 16:17:00,
2013-02-02 08:22:00,42.8,4.5,28.53,ESE,102,4.0,4.0,20,0.00,,---,0.00,VWS V14.01,2013-02-02 16:22:00,
2013-02-02 08:27:00,43.3,5.0,28.53,SE,128,11.0,11.0,20,0.00,,---,0.00,VWS V14.01,2013-02-02 16:27:00,
2013-02-02 08:32:00,43.3,5.0,28.53,ESE,117,5.4,6.3,20,0.00,,---,0.00,VWS V14.01,2013-02-02 16:32:00,
2013-02-02 08:38:00,43.9,5.4,28.53,ESE,104,5.4,5.4,20,0.00,,---,0.00,VWS V14.01,2013-02-02 16:38:00,
2013-02-02 08:43:00,43.9,5.4,28.53,East,96,5.8,5.8,20,0.00,,---,0.00,VWS V14.01,2013-02-02 16:43:00,
2013-02-02 08:48:00,44.2,5.7,28.53,SE,139,6.3,6.3,20,0.00,,---,0.00,VWS V14.01,2013-02-02 16:48:00,
2013-02-02 08:53:00,44.6,2.5,28.53,SE,142,4.9,5.4,17,0.00,,---,0.00,VWS V14.01,2013-02-02 16:53:00,
2013-02-02 08:59:00,44.6,2.5,28.53,SSE,160,5.8,5.8,17,0.00,,---,0.00,VWS V14.01,2013-02-02 16:59:00,
2013-02-02 09:04:00,44.8,2.6,28.53,SE,141,4.0,5.8,17,0.00,,---,0.00,VWS V14.01,2013-02-02 17:04:00,
2013-02-02 09:09:00,44.8,2.6,28.53,SE,143,3.1,4.0,17,0.00,,---,0.00,VWS V14.01,2013-02-02 17:09:00,
2013-02-02 09:14:00,45.1,6.5,28.53,SE,131,5.8,5.8,20,0.00,,---,0.00,VWS V14.01,2013-02-02 17:14:00,
2013-02-02 09:20:00,45.1,6.5,28.53,SE,125,3.1,10.5,20,0.00,,---,0.00,VWS V14.01,2013-02-02 17:20:00,
2013-02-02 09:25:00,45.1,6.5,28.53,South,184,5.8,5.8,20,0.00,,---,0.00,VWS V14.01,2013-02-02 17:25:00,
2013-02-02 09:30:00,45.3,6.6,28.53,ESE,108,5.8,5.8,20,0.00,,---,0.00,VWS V14.01,2013-02-02 17:30:00,
2013-02-02 09:35:00,45.3,6.6,28.53,SE,134,4.0,5.8,20,0.00,,---,0.00,VWS V14.01,2013-02-02 17:35:00,
2013-02-02 09:40:00,45.9,3.5,28.53,ESE,112,2.7,2.7,17,0.00,,---,0.00,VWS V14.01,2013-02-02 17:40:00,
2013-02-02 09:45:00,45.9,3.5,28.53,ESE,102,0.0,0.0,17,0.00,,---,0.00,VWS V14.01,2013-02-02 17:45:00,
2013-02-02 09:50:00,45.9,3.5,28.53,ENE,75,2.7,2.7,17,0.00,,---,0.00,VWS V14.01,2013-02-02 17:50:00,
2013-02-02 09:56:00,45.1,6.5,28.56,SE,146,3.1,3.1,20,0.00,,---,0.00,VWS V14.01,2013-02-02 17:56:00,
2013-02-02 10:01:00,45.1,6.5,28.56,South,179,0.0,0.0,20,0.00,,---,0.00,VWS V14.01,2013-02-02 18:01:00,
2013-02-02 10:06:00,46.6,6.5,28.56,ESE,119,0.0,0.0,19,0.00,,---,0.00,VWS V14.01,2013-02-02 18:06:00,
2013-02-02 10:11:00,46.6,6.5,28.56,ESE,102,0.0,0.0,19,0.00,,---,0.00,VWS V14.01,2013-02-02 18:11:00,
2013-02-02 10:17:00,46.6,6.5,28.56,ESE,112,0.0,0.0,19,0.00,,---,0.00,VWS V14.01,2013-02-02 18:17:00,
2013-02-02 10:22:00,47.7,7.4,28.56,SE,127,0.0,0.0,19,0.00,,---,0.00,VWS V14.01,2013-02-02 18:22:00,
2013-02-02 10:27:00,47.8,7.6,28.56,ENE,68,0.0,0.0,19,0.00,,---,0.00,VWS V14.01,2013-02-02 18:27:00,
2013-02-02 10:32:00,48.0,7.7,28.56,ENE,59,0.0,2.2,19,0.00,,---,0.00,VWS V14.01,2013-02-02 18:32:00,
2013-02-02 10:38:00,48.0,7.7,28.56,ESE,103,0.0,0.0,19,0.00,,---,0.00,VWS V14.01,2013-02-02 18:38:00,
2013-02-02 10:43:00,48.0,7.7,28.56,ESE,114,2.2,4.9,19,0.00,,---,0.00,VWS V14.01,2013-02-02 18:43:00,
2013-02-02 10:48:00,48.4,8.0,28.56,ENE,62,0.0,0.0,19,0.00,,---,0.00,VWS V14.01,2013-02-02 18:48:00,
2013-02-02 10:53:00,48.4,8.0,28.56,East,90,0.0,0.0,19,0.00,,---,0.00,VWS V14.01,2013-02-02 18:53:00,
2013-02-02 10:59:00,49.3,8.8,28.56,East,90,0.0,0.0,19,0.00,,---,0.00,VWS V14.01,2013-02-02 18:59:00,
2013-02-02 11:04:00,49.1,13.9,28.56,NNE,19,0.0,0.0,24,0.00,,---,0.00,VWS V14.01,2013-02-02 19:04:00,
2013-02-02 11:09:00,49.1,13.9,28.56,North,7,0.0,0.0,24,0.00,,---,0.00,VWS V14.01,2013-02-02 19:09:00,
2013-02-02 11:14:00,49.1,13.9,28.56,North,7,0.0,0.0,24,0.00,,---,0.00,VWS V14.01,2013-02-02 19:14:00,
2013-02-02 11:20:00,49.1,13.9,28.56,SSW,200,0.0,0.0,24,0.00,,---,0.00,VWS V14.01,2013-02-02 19:20:00,
2013-02-02 11:25:00,50.0,11.6,28.56,South,177,0.0,0.0,21,0.00,,---,0.00,VWS V14.01,2013-02-02 19:25:00,
2013-02-02 11:30:00,50.0,11.6,28.56,SSW,207,0.0,0.0,21,0.00,,---,0.00,VWS V14.01,2013-02-02 19:30:00,
2013-02-02 11:35:00,50.0,11.6,28.56,SSW,207,0.0,0.0,21,0.00,,---,0.00,VWS V14.01,2013-02-02 19:35:00,
2013-02-02 11:41:00,49.8,11.5,28.56,SSW,203,0.0,0.0,21,0.00,,---,0.00,VWS V14.01,2013-02-02 19:41:00,
2013-02-02 11:46:00,49.8,9.2,28.56,SSW,196,0.0,0.0,19,0.00,,---,0.00,VWS V14.01,2013-02-02 19:46:00,
2013-02-02 11:51:00,49.8,9.2,28.56,South,176,0.0,0.0,19,0.00,,---,0.00,VWS V14.01,2013-02-02 19:51:00,
2013-02-02 11:56:00,49.8,9.2,28.56,SE,140,2.2,2.2,19,0.00,,---,0.00,VWS V14.01,2013-02-02 19:56:00,
2013-02-02 12:02:00,49.8,9.2,28.56,SSE,164,2.2,2.2,19,0.00,,---,0.00,VWS V14.01,2013-02-02 20:02:00,
2013-02-02 12:07:00,49.6,9.1,28.56,SSW,204,0.0,0.0,19,0.00,,---,0.00,VWS V14.01,2013-02-02 20:07:00,
2013-02-02 12:12:00,49.6,9.1,28.56,SSW,193,0.0,0.0,19,0.00,,---,0.00,VWS V14.01,2013-02-02 20:12:00,
2013-02-02 12:18:00,49.3,11.0,28.56,SSW,194,3.1,3.1,21,0.00,,---,0.00,VWS V14.01,2013-02-02 20:18:00,
2013-02-02 12:23:00,49.3,11.0,28.56,SSW,208,0.0,3.1,21,0.00,,---,0.00,VWS V14.01,2013-02-02 20:23:00,
2013-02-02 12:28:00,49.1,10.9,28.56,SSW,200,2.7,3.6,21,0.00,,---,0.00,VWS V14.01,2013-02-02 20:28:00,
2013-02-02 12:33:00,49.1,10.9,28.56,SSW,202,4.0,4.0,21,0.00,,---,0.00,VWS V14.01,2013-02-02 20:33:00,
2013-02-02 12:39:00,48.6,10.4,28.56,South,171,0.0,3.6,21,0.00,,---,0.00,VWS V14.01,2013-02-02 20:39:00,
2013-02-02 12:44:00,48.4,10.3,28.56,SSW,199,3.1,3.1,21,0.00,,---,0.00,VWS V14.01,2013-02-02 20:44:00,
2013-02-02 12:49:00,48.4,13.3,28.56,South,183,2.2,3.1,24,0.00,,---,0.00,VWS V14.01,2013-02-02 20:49:00,
2013-02-02 12:54:00,48.4,13.3,28.56,SW,225,0.0,2.2,24,0.00,,---,0.00,VWS V14.01,2013-02-02 20:54:00,
2013-02-02 13:00:00,48.7,13.6,28.56,SW,226,0.0,0.0,24,0.00,,---,0.00,VWS V14.01,2013-02-02 21:00:00,
2013-02-02 13:05:00,49.6,14.3,28.56,SW,226,0.0,0.0,24,0.00,,---,0.00,VWS V14.01,2013-02-02 21:05:00,
2013-02-02 13:10:00,49.5,14.2,28.56,SW,226,0.0,0.0,24,0.00,,---,0.00,VWS V14.01,2013-02-02 21:10:00,
2013-02-02 13:15:00,50.0,11.6,28.56,SW,224,0.0,0.0,21,0.00,,---,0.00,VWS V14.01,2013-02-02 21:15:00,
2013-02-02 13:21:00,50.0,11.6,28.56,SW,224,0.0,0.0,21,0.00,,---,0.00,VWS V14.01,2013-02-02 21:21:00,
2013-02-02 13:26:00,50.0,11.6,28.56,North,0,0.0,0.0,21,0.00,,---,0.00,VWS V14.01,2013-02-02 21:26:00,
2013-02-02 13:31:00,48.7,15.4,28.56,North,0,0.0,0.0,26,0.00,,---,0.00,VWS V14.01,2013-02-02 21:31:00,
2013-02-02 13:36:00,48.4,15.1,28.56,North,0,0.0,0.0,26,0.00,,---,0.00,VWS V14.01,2013-02-02 21:36:00,
2013-02-02 13:42:00,48.6,15.2,28.56,North,0,0.0,0.0,26,0.00,,---,0.00,VWS V14.01,2013-02-02 21:42:00,
2013-02-02 13:47:00,48.6,15.2,28.53,NNE,33,0.0,0.0,26,0.00,,---,0.00,VWS V14.01,2013-02-02 21:47:00,
2013-02-02 13:52:00,48.6,15.2,28.53,NNE,29,0.0,2.2,26,0.00,,---,0.00,VWS V14.01,2013-02-02 21:52:00,
2013-02-02 13:57:00,48.7,15.4,28.56,North,0,0.0,0.0,26,0.00,,---,0.00,VWS V14.01,2013-02-02 21:57:00,
2013-02-02 14:03:00,48.7,15.4,28.56,North,0,0.0,0.0,26,0.00,,---,0.00,VWS V14.01,2013-02-02 22:03:00,
2013-02-02 14:08:00,49.3,16.7,28.56,NNE,17,0.0,0.0,27,0.00,,---,0.00,VWS V14.01,2013-02-02 22:08:00,
2013-02-02 14:13:00,49.5,16.9,28.56,NE,41,0.0,0.0,27,0.00,,---,0.00,VWS V14.01,2013-02-02 22:13:00,
2013-02-02 14:18:00,50.2,16.6,28.56,NE,55,3.1,3.1,26,0.00,,---,0.00,VWS V14.01,2013-02-02 22:18:00,
2013-02-02 14:24:00,50.4,16.8,28.56,NE,42,0.0,0.0,26,0.00,,---,0.00,VWS V14.01,2013-02-02 22:24:00,
2013-02-02 14:29:00,50.4,16.8,28.56,NE,48,0.0,0.0,26,0.00,,---,0.00,VWS V14.01,2013-02-02 22:29:00,
2013-02-02 14:34:00,50.7,12.2,28.56,NE,53,0.0,0.0,21,0.00,,---,0.00,VWS V14.01,2013-02-02 22:34:00,
2013-02-02 14:39:00,50.7,12.2,28.56,ENE,77,2.2,2.2,21,0.00,,---,0.00,VWS V14.01,2013-02-02 22:39:00,
2013-02-02 14:45:00,50.5,12.1,28.53,NE,37,0.0,2.2,21,0.00,,---,0.00,VWS V14.01,2013-02-02 22:45:00,
2013-02-02 14:50:00,50.4,14.9,28.53,NE,37,0.0,0.0,24,0.00,,---,0.00,VWS V14.01,2013-02-02 22:50:00,
2013-02-02 14:55:00,50.4,14.9,28.53,NE,41,0.0,0.0,24,0.00,,---,0.00,VWS V14.01,2013-02-02 22:55:00,
2013-02-02 15:00:00,50.2,16.6,28.53,NNE,33,0.0,0.0,26,0.00,,---,0.00,VWS V14.01,2013-02-02 23:00:00,
2013-02-02 15:06:00,50.2,16.6,28.53,NNE,33,0.0,0.0,26,0.00,,---,0.00,VWS V14.01,2013-02-02 23:06:00,
2013-02-02 15:11:00,50.2,16.6,28.56,NNE,33,0.0,0.0,26,0.00,,---,0.00,VWS V14.01,2013-02-02 23:11:00,
2013-02-02 15:16:00,50.4,16.8,28.56,NNE,33,0.0,0.0,26,0.00,,---,0.00,VWS V14.01,2013-02-02 23:16:00,
2013-02-02 15:22:00,50.5,17.0,28.56,NNE,33,0.0,0.0,26,0.00,,---,0.00,VWS V14.01,2013-02-02 23:22:00,
2013-02-02 15:27:00,50.9,15.4,28.56,NNE,32,0.0,0.0,24,0.00,,---,0.00,VWS V14.01,2013-02-02 23:27:00,
2013-02-02 15:32:00,50.9,17.2,28.56,NNE,30,0.0,0.0,26,0.00,,---,0.00,VWS V14.01,2013-02-02 23:32:00,
2013-02-02 15:37:00,50.9,17.2,28.56,NNE,30,0.0,0.0,26,0.00,,---,0.00,VWS V14.01,2013-02-02 23:37:00,
2013-02-02 15:43:00,50.7,17.1,28.56,NNE,30,0.0,0.0,26,0.00,,---,0.00,VWS V14.01,2013-02-02 23:43:00,
2013-02-02 15:48:00,50.7,17.1,28.56,NNE,30,0.0,0.0,26,0.00,,---,0.00,VWS V14.01,2013-02-02 23:48:00,
2013-02-02 15:53:00,50.2,16.6,28.56,NNE,30,0.0,0.0,26,0.00,,---,0.00,VWS V14.01,2013-02-02 23:53:00,
2013-02-02 15:58:00,50.2,16.6,28.56,NNE,30,0.0,0.0,26,0.00,,---,0.00,VWS V14.01,2013-02-02 23:58:00,
2013-02-02 16:04:00,50.0,16.5,28.56,NNE,30,0.0,0.0,26,0.00,,---,0.00,VWS V14.01,2013-02-03 00:04:00,
2013-02-02 16:09:00,50.0,16.5,28.56,NNE,30,0.0,0.0,26,0.00,,---,0.00,VWS V14.01,2013-02-03 00:09:00,
2013-02-02 16:14:00,50.0,16.5,28.56,NNE,30,0.0,0.0,26,0.00,,---,0.00,VWS V14.01,2013-02-03 00:14:00,
2013-02-02 16:19:00,49.5,16.9,28.56,NNE,30,0.0,0.0,27,0.00,,---,0.00,VWS V14.01,2013-02-03 00:19:00,
2013-02-02 16:25:00,49.5,16.9,28.56,NNE,30,0.0,0.0,27,0.00,,---,0.00,VWS V14.01,2013-02-03 00:25:00,
2013-02-02 16:30:00,49.5,16.9,28.56,NNE,30,0.0,0.0,27,0.00,,---,0.00,VWS V14.01,2013-02-03 00:30:00,
2013-02-02 16:35:00,48.2,17.5,28.56,NNE,30,0.0,0.0,29,0.00,,---,0.00,VWS V14.01,2013-02-03 00:35:00,
2013-02-02 16:40:00,47.8,17.9,28.56,NNE,30,0.0,0.0,30,0.00,,---,0.00,VWS V14.01,2013-02-03 00:40:00,
2013-02-02 16:46:00,47.8,17.9,28.53,NNE,30,0.0,0.0,30,0.00,,---,0.00,VWS V14.01,2013-02-03 00:46:00,
2013-02-02 16:51:00,47.8,17.9,28.53,NNE,30,0.0,0.0,30,0.00,,---,0.00,VWS V14.01,2013-02-03 00:51:00,
2013-02-02 16:56:00,47.8,17.9,28.53,SSW,194,0.0,0.0,30,0.00,,---,0.00,VWS V14.01,2013-02-03 00:56:00,
2013-02-02 17:01:00,46.9,17.9,28.53,SSW,204,0.0,0.0,31,0.00,,---,0.00,VWS V14.01,2013-02-03 01:01:00,
2013-02-02 17:07:00,47.1,18.1,28.53,SSW,204,0.0,0.0,31,0.00,,---,0.00,VWS V14.01,2013-02-03 01:07:00,
2013-02-02 17:12:00,46.9,17.9,28.53,East,95,0.0,0.0,31,0.00,,---,0.00,VWS V14.01,2013-02-03 01:12:00,
2013-02-02 17:17:00,46.4,17.4,28.53,East,94,0.0,0.0,31,0.00,,---,0.00,VWS V14.01,2013-02-03 01:17:00,
2013-02-02 17:23:00,46.4,17.4,28.53,East,94,0.0,0.0,31,0.00,,---,0.00,VWS V14.01,2013-02-03 01:23:00,
2013-02-02 17:28:00,45.7,19.6,28.53,East,94,0.0,0.0,35,0.00,,---,0.00,VWS V14.01,2013-02-03 01:28:00,
2013-02-02 17:33:00,45.5,20.1,28.53,East,95,0.0,0.0,36,0.00,,---,0.00,VWS V14.01,2013-02-03 01:33:00,
2013-02-02 17:38:00,45.5,20.1,28.53,East,95,0.0,0.0,36,0.00,,---,0.00,VWS V14.01,2013-02-03 01:38:00,
2013-02-02 17:44:00,45.5,20.1,28.56,East,95,0.0,0.0,36,0.00,,---,0.00,VWS V14.01,2013-02-03 01:44:00,
2013-02-02 17:49:00,44.2,20.3,28.56,East,95,0.0,0.0,38,0.00,,---,0.00,VWS V14.01,2013-02-03 01:49:00,
2013-02-02 17:54:00,44.6,20.6,28.56,East,95,0.0,0.0,38,0.00,,---,0.00,VWS V14.01,2013-02-03 01:54:00,
2013-02-02 17:59:00,44.2,20.3,28.56,East,95,0.0,0.0,38,0.00,,---,0.00,VWS V14.01,2013-02-03 01:59:00,
2013-02-02 18:05:00,44.2,20.3,28.53,East,95,0.0,0.0,38,0.00,,---,0.00,VWS V14.01,2013-02-03 02:05:00,
2013-02-02 18:10:00,44.2,20.3,28.53,East,95,0.0,0.0,38,0.00,,---,0.00,VWS V14.01,2013-02-03 02:10:00,
2013-02-02 18:15:00,43.9,20.5,28.53,East,95,0.0,0.0,39,0.00,,---,0.00,VWS V14.01,2013-02-03 02:15:00,
2013-02-02 18:21:00,43.9,20.5,28.53,East,95,0.0,0.0,39,0.00,,---,0.00,VWS V14.01,2013-02-03 02:21:00,
2013-02-02 18:26:00,44.2,20.3,28.53,East,95,0.0,0.0,38,0.00,,---,0.00,VWS V14.01,2013-02-03 02:26:00,
2013-02-02 18:31:00,45.1,20.4,28.53,East,95,0.0,0.0,37,0.00,,---,0.00,VWS V14.01,2013-02-03 02:31:00,
2013-02-02 18:36:00,45.3,20.6,28.53,East,95,0.0,0.0,37,0.00,,---,0.00,VWS V14.01,2013-02-03 02:36:00,
2013-02-02 18:42:00,45.1,20.4,28.53,East,95,0.0,0.0,37,0.00,,---,0.00,VWS V14.01,2013-02-03 02:42:00,
2013-02-02 18:47:00,45.1,20.4,28.53,East,95,0.0,0.0,37,0.00,,---,0.00,VWS V14.01,2013-02-03 02:47:00,
2013-02-02 18:52:00,44.2,20.3,28.53,East,95,0.0,0.0,38,0.00,,---,0.00,VWS V14.01,2013-02-03 02:52:00,
2013-02-02 18:57:00,43.5,19.6,28.53,East,95,0.0,0.0,38,0.00,,---,0.00,VWS V14.01,2013-02-03 02:57:00,
2013-02-02 19:03:00,43.2,19.3,28.53,East,95,0.0,0.0,38,0.00,,---,0.00,VWS V14.01,2013-02-03 03:03:00,
2013-02-02 19:08:00,43.0,19.7,28.53,East,95,0.0,0.0,39,0.00,,---,0.00,VWS V14.01,2013-02-03 03:08:00,
2013-02-02 19:13:00,43.0,19.7,28.53,East,95,0.0,0.0,39,0.00,,---,0.00,VWS V14.01,2013-02-03 03:13:00,
2013-02-02 19:18:00,43.3,20.1,28.53,SE,128,3.1,3.1,39,0.00,,---,0.00,VWS V14.01,2013-02-03 03:18:00,
2013-02-02 19:24:00,44.2,20.9,28.53,SE,128,3.1,3.1,39,0.00,,---,0.00,VWS V14.01,2013-02-03 03:24:00,
2013-02-02 19:29:00,44.6,20.0,28.53,SE,133,0.0,4.0,37,0.00,,---,0.00,VWS V14.01,2013-02-03 03:29:00,
2013-02-02 19:34:00,44.8,20.1,28.53,East,99,0.0,3.1,37,0.00,,---,0.00,VWS V14.01,2013-02-03 03:34:00,
2013-02-02 19:40:00,45.1,19.1,28.53,ESE,114,0.0,0.0,35,0.00,,---,0.00,VWS V14.01,2013-02-03 03:40:00,
2013-02-02 19:45:00,45.1,19.1,28.53,ESE,105,0.0,0.0,35,0.00,,---,0.00,VWS V14.01,2013-02-03 03:45:00,
2013-02-02 19:50:00,45.1,17.8,28.53,SE,137,0.0,0.0,33,0.00,,---,0.00,VWS V14.01,2013-02-03 03:50:00,
2013-02-02 19:55:00,45.1,17.8,28.53,ESE,119,2.7,2.7,33,0.00,,---,0.00,VWS V14.01,2013-02-03 03:55:00,
2013-02-02 20:01:00,45.1,17.8,28.53,SSE,152,0.0,0.0,33,0.00,,---,0.00,VWS V14.01,2013-02-03 04:01:00,
2013-02-02 20:06:00,44.8,17.5,28.53,SSE,147,2.2,2.2,33,0.00,,---,0.00,VWS V14.01,2013-02-03 04:06:00,
2013-02-02 20:11:00,44.6,17.3,28.53,SSE,155,0.0,0.0,33,0.00,,---,0.00,VWS V14.01,2013-02-03 04:11:00,
2013-02-02 20:17:00,45.0,16.9,28.53,SSE,155,0.0,0.0,32,0.00,,---,0.00,VWS V14.01,2013-02-03 04:17:00,
2013-02-02 20:22:00,45.1,17.1,28.53,ESE,123,0.0,0.0,32,0.00,,---,0.00,VWS V14.01,2013-02-03 04:22:00,
2013-02-02 20:27:00,45.0,16.9,28.53,ESE,123,0.0,0.0,32,0.00,,---,0.00,VWS V14.01,2013-02-03 04:27:00,
2013-02-02 20:32:00,44.2,17.0,28.53,ESE,111,0.0,0.0,33,0.00,,---,0.00,VWS V14.01,2013-02-03 04:32:00,
2013-02-02 20:38:00,44.2,17.0,28.53,SE,129,2.7,2.7,33,0.00,,---,0.00,VWS V14.01,2013-02-03 04:38:00,
2013-02-02 20:43:00,44.4,15.7,28.53,SE,129,2.7,2.7,31,0.00,,---,0.00,VWS V14.01,2013-02-03 04:43:00,
2013-02-02 20:48:00,44.4,15.7,28.53,SE,138,0.0,2.7,31,0.00,,---,0.00,VWS V14.01,2013-02-03 04:48:00,
2013-02-02 20:53:00,44.2,15.5,28.53,SE,138,0.0,0.0,31,0.00,,---,0.00,VWS V14.01,2013-02-03 04:53:00,
2013-02-02 20:59:00,44.6,15.1,28.53,SE,138,0.0,0.0,30,0.00,,---,0.00,VWS V14.01,2013-02-03 04:59:00,
2013-02-02 21:00:00,44.4,15.7,28.53,SE,138,0.0,0.0,31,0.00,,---,0.00,VWS V14.01,2013-02-03 05:00:00,
2013-02-02 21:01:00,44.4,15.7,28.53,SE,138,0.0,0.0,31,0.00,,---,0.00,VWS V14.01,2013-02-03 05:01:00,
2013-02-02 21:02:00,44.4,15.7,28.53,SE,138,0.0,0.0,31,0.00,,---,0.00,VWS V14.01,2013-02-03 05:02:00,
2013-02-02 21:03:00,44.4,15.7,28.53,SE,138,0.0,0.0,31,0.00,,---,0.00,VWS V14.01,2013-02-03 05:03:00,
2013-02-02 21:08:00,43.2,14.6,28.53,SE,138,0.0,0.0,31,0.00,,---,0.00,VWS V14.01,2013-02-03 05:08:00,
2013-02-02 21:14:00,43.3,16.2,28.53,SE,138,0.0,0.0,33,0.00,,---,0.00,VWS V14.01,2013-02-03 05:14:00,
2013-02-02 21:19:00,43.5,16.3,28.53,SE,138,0.0,0.0,33,0.00,,---,0.00,VWS V14.01,2013-02-03 05:19:00,
2013-02-02 21:24:00,43.2,16.0,28.53,SE,138,0.0,0.0,33,0.00,,---,0.00,VWS V14.01,2013-02-03 05:24:00,
2013-02-02 21:29:00,43.0,16.5,28.56,SE,138,0.0,0.0,34,0.00,,---,0.00,VWS V14.01,2013-02-03 05:29:00,
2013-02-02 21:35:00,42.6,16.9,28.56,SE,138,0.0,0.0,35,0.00,,---,0.00,VWS V14.01,2013-02-03 05:35:00,
2013-02-02 21:40:00,42.6,16.9,28.53,SE,139,0.0,0.0,35,0.00,,---,0.00,VWS V14.01,2013-02-03 05:40:00,
2013-02-02 21:45:00,42.3,15.9,28.53,SE,139,0.0,0.0,34,0.00,,---,0.00,VWS V14.01,2013-02-03 05:45:00,
2013-02-02 21:51:00,42.4,16.1,28.53,SE,139,0.0,0.0,34,0.00,,---,0.00,VWS V14.01,2013-02-03 05:51:00,
2013-02-02 21:56:00,42.4,16.1,28.53,SE,139,0.0,0.0,34,0.00,,---,0.00,VWS V14.01,2013-02-03 05:56:00,
2013-02-02 22:01:00,43.3,15.5,28.53,ESE,115,0.0,2.7,32,0.00,,---,0.00,VWS V14.01,2013-02-03 06:01:00,
2013-02-02 22:06:00,43.3,15.5,28.56,SSE,159,0.0,0.0,32,0.00,,---,0.00,VWS V14.01,2013-02-03 06:06:00,
2013-02-02 22:12:00,42.8,15.0,28.56,SSE,152,0.0,0.0,32,0.00,,---,0.00,VWS V14.01,2013-02-03 06:12:00,
2013-02-02 22:17:00,42.6,16.2,28.56,SSE,152,0.0,0.0,34,0.00,,---,0.00,VWS V14.01,2013-02-03 06:17:00,
2013-02-02 22:22:00,42.4,16.1,28.53,SSE,160,2.7,2.7,34,0.00,,---,0.00,VWS V14.01,2013-02-03 06:22:00,
2013-02-02 22:27:00,42.4,16.1,28.53,SSE,166,0.0,2.7,34,0.00,,---,0.00,VWS V14.01,2013-02-03 06:27:00,
2013-02-02 22:33:00,42.8,15.7,28.53,SSE,166,0.0,0.0,33,0.00,,---,0.00,VWS V14.01,2013-02-03 06:33:00,
2013-02-02 22:38:00,42.8,15.7,28.53,ESE,123,0.0,0.0,33,0.00,,---,0.00,VWS V14.01,2013-02-03 06:38:00,
2013-02-02 22:43:00,43.0,15.2,28.53,ESE,123,0.0,0.0,32,0.00,,---,0.00,VWS V14.01,2013-02-03 06:43:00,
2013-02-02 22:48:00,43.0,15.2,28.53,ESE,118,0.0,0.0,32,0.00,,---,0.00,VWS V14.01,2013-02-03 06:48:00,
2013-02-02 22:54:00,43.5,14.9,28.53,ESE,118,0.0,0.0,31,0.00,,---,0.00,VWS V14.01,2013-02-03 06:54:00,
2013-02-02 22:59:00,43.0,15.2,28.53,ESE,118,0.0,0.0,32,0.00,,---,0.00,VWS V14.01,2013-02-03 06:59:00,
2013-02-02 23:04:00,43.0,15.2,28.53,ESE,118,0.0,0.0,32,0.00,,---,0.00,VWS V14.01,2013-02-03 07:04:00,
2013-02-02 23:09:00,41.2,15.0,28.53,ESE,118,0.0,0.0,34,0.00,,---,0.00,VWS V14.01,2013-02-03 07:09:00,
2013-02-02 23:15:00,41.2,15.0,28.56,ESE,119,0.0,0.0,34,0.00,,---,0.00,VWS V14.01,2013-02-03 07:15:00,
2013-02-02 23:20:00,40.3,17.3,28.56,SSE,157,2.2,2.7,39,0.00,,---,0.00,VWS V14.01,2013-02-03 07:20:00,
2013-02-02 23:25:00,40.3,17.3,28.56,SSE,157,2.7,2.7,39,0.00,,---,0.00,VWS V14.01,2013-02-03 07:25:00,
2013-02-02 23:30:00,40.3,17.3,28.56,South,182,0.0,0.0,39,0.00,,---,0.00,VWS V14.01,2013-02-03 07:30:00,
2013-02-02 23:36:00,37.9,19.0,28.56,South,189,3.1,3.1,46,0.00,,---,0.00,VWS V14.01,2013-02-03 07:36:00,
2013-02-02 23:41:00,37.0,20.1,28.59,South,189,3.1,3.1,50,0.00,,---,0.00,VWS V14.01,2013-02-03 07:41:00,
2013-02-02 23:46:00,37.0,20.6,28.59,SSW,194,3.6,3.6,51,0.00,,---,0.00,VWS V14.01,2013-02-03 07:46:00,
2013-02-02 23:51:00,37.0,20.6,28.59,SSW,194,3.1,3.1,51,0.00,,---,0.00,VWS V14.01,2013-02-03 07:51:00,
2013-02-02 23:57:00,37.0,20.6,28.59,South,187,4.0,4.0,51,0.00,,---,0.00,VWS V14.01,2013-02-03 07:57:00,